STARLINK-5069 (55640 NORAD) Tracking and Keplerian Element Data

This shows tracking and keplerian element data for the satellite.

Feedback or suggestion? Click here.




ElementValue
Catalog55640
NameSTARLINK-5069
Epoch Orbit130
Epoch Day62.91667824
Epoch Year2023
RAAN110.1949
Inclination70.0001
Eccentricity0.0003485
Argument of Perigee268.3732
Mean Anonmoly331.574
Mean Motion15.75045821
Decay Rate-0.00972903
L11 55640U 23021N 23062.91667824 -.00972903 00000+0 -72941-2 0 9990
L22 55640 70.0001 110.1949 0003485 268.3732 331.5740 15.75045821 1301



Live tracking and technical data element details for STARLINK-5069 (NORAD 55640). STARLINK-5069 can be tracked NOW for your location showing map with azimuth and elevation plus other details from your city location.







IsCatalogInMostPopularTable: catalog: 55640, numindb: 2
Update: records affected: 1



GetName: 55640 STARLINK-5069

Hit Count: updated at: Wed, 22 Mar 2023 16:24:01 GMT